Change the Weather History Date:

Friday, November 30, 2012

  Actual Average Record
Temperature  
Mean Temperature 37 °F -  
Max Temperature 51 °F 48 °F 72 °F (1991)
Min Temperature 23 °F 32 °F 13 °F (1976)
Degree Days  
Heating Degree Days 28    
Moisture  
Dew Point 29 °F    
Average Humidity 84    
Maximum Humidity 100    
Minimum Humidity 43    
Precipitation  
Precipitation 0.00 in - - ()
Sea Level Pressure  
Sea Level Pressure 30.36 in    
Wind  
Wind Speed 0 mph (East)    
Max Wind Speed 5 mph    
Max Gust Speed -    
Visibility 5 miles    
Events Fog    
Averages and records for this station are not official NWS values.
T = Trace of Precipitation, MM = Missing Value Source: NWS Daily Summary

Daily Weather History Graph

Daily Weather History Graph

Search for Another Location

Airport or City:

Trip Planner

Search our weather history database for the weather conditions in past years. The results will help you decide how hot, cold, wet, or windy it might be!

Date:

Astronomy

Nov. 30, 2012 Rise Set
Actual Time 7:00 AM EST 4:37 PM EST
Civil Twilight 6:31 AM EST 5:07 PM EST
Nautical Twilight 5:57 AM EST 5:40 PM EST
Astronomical Twilight 5:25 AM EST 6:12 PM EST
Moon 6:30 PM EST (11/30) 8:30 AM EST (11/30)
Length of Visible Light 10h 36m
Length of Day
9h 36m
Waning Gibbous, 96% of the Moon is Illuminated
Nov 30
Waning Gibbous
Dec 6
Last Quarter
Dec 13
New
Dec 20
First Quarter
Dec 28
Full

Hourly Weather History & Observations

Time (EST) Temp. Windchill Dew Point Humidity Pressure Visibility Wind Dir Wind Speed Gust Speed Precip Events Conditions
12:54 AM 25.0 °F - 23.0 °F 92% 30.36 in 7.0 mi Calm Calm - N/A   Clear
1:54 AM 24.1 °F - 23.0 °F 96% 30.36 in 7.0 mi Calm Calm - N/A   Clear
2:54 AM 25.0 °F - 23.0 °F 92% 30.36 in 8.0 mi Calm Calm - N/A   Clear
3:43 AM 24.8 °F - 21.2 °F 86% 30.35 in 7.0 mi Calm Calm - N/A   Scattered Clouds
3:51 AM 24.8 °F - 21.2 °F 86% 30.35 in 7.0 mi Calm Calm - N/A   Mostly Cloudy
3:54 AM 23.0 °F - 21.0 °F 92% 30.35 in 7.0 mi Calm Calm - N/A   Mostly Cloudy
4:04 AM 24.8 °F - 21.2 °F 86% 30.34 in 1.0 mi Calm Calm - N/A   Mist
4:11 AM 24.8 °F - 21.2 °F 86% 30.34 in 0.8 mi Calm Calm - N/A   Mist
4:14 AM 24.8 °F - 23.0 °F 93% 30.34 in 1.0 mi Calm Calm - N/A   Mist
4:22 AM 24.8 °F - 23.0 °F 93% 30.34 in 0.2 mi Calm Calm - N/A Fog Light Freezing Fog
4:54 AM 25.0 °F - 23.0 °F 92% 30.34 in 0.2 mi Calm Calm - N/A Fog Light Freezing Fog
5:54 AM 25.0 °F - 25.0 °F 100% 30.36 in 0.2 mi Calm Calm - N/A Fog Light Freezing Fog
6:54 AM 27.0 °F - 25.0 °F 92% 30.38 in 0.2 mi Calm Calm - N/A Fog Light Freezing Fog
7:54 AM 28.9 °F - 25.0 °F 85% 30.38 in 0.2 mi Calm Calm - N/A Fog Light Freezing Fog
8:54 AM 30.9 °F - 30.0 °F 96% 30.39 in 0.2 mi Calm Calm - N/A Fog Light Freezing Fog
9:25 AM 35.6 °F - 35.6 °F 100% 30.40 in 1.0 mi Calm Calm - N/A   Mist
9:31 AM 37.4 °F - 35.6 °F 93% 30.39 in 2.0 mi Calm Calm - N/A   Scattered Clouds
9:54 AM 39.0 °F - 37.9 °F 96% 30.39 in 3.0 mi Calm Calm - N/A   Clear
10:54 AM 45.0 °F - 36.0 °F 71% 30.38 in 8.0 mi Calm Calm - N/A   Clear
11:54 AM 48.0 °F - 33.1 °F 56% 30.36 in 10.0 mi Calm Calm - N/A   Clear
12:54 PM 50.0 °F - 33.1 °F 52% 30.35 in 10.0 mi Variable 3.5 mph - N/A   Clear
1:54 PM 51.1 °F - 33.1 °F 50% 30.34 in 10.0 mi ENE 4.6 mph - N/A   Clear
2:54 PM 51.1 °F - 28.9 °F 43% 30.33 in 10.0 mi SE 4.6 mph - N/A   Clear
3:54 PM 48.0 °F - 33.1 °F 56% 30.34 in 10.0 mi Calm Calm - N/A   Partly Cloudy
4:54 PM 41.0 °F - 34.0 °F 76% 30.34 in 10.0 mi Calm Calm - N/A   Clear
5:54 PM 39.9 °F 37.8 °F 35.1 °F 83% 30.35 in 10.0 mi East 3.5 mph - N/A   Partly Cloudy
6:54 PM 39.9 °F - 35.1 °F 83% 30.36 in 10.0 mi Calm Calm - N/A   Partly Cloudy
7:54 PM 39.9 °F - 36.0 °F 86% 30.38 in 8.0 mi Calm Calm - N/A   Partly Cloudy
8:54 PM 41.0 °F - 37.0 °F 86% 30.38 in 7.0 mi Calm Calm - N/A   Mostly Cloudy
9:54 PM 39.0 °F - 36.0 °F 89% 30.37 in 7.0 mi Calm Calm - N/A   Mostly Cloudy
10:54 PM 39.0 °F - 37.0 °F 93% 30.37 in 7.0 mi Calm Calm - N/A   Mostly Cloudy
11:54 PM 34.0 °F - 33.1 °F 96% 30.38 in 3.0 mi Calm Calm - N/A   Partly Cloudy